TimeEDT,TemperatureF,Dew PointF,Humidity,Sea Level PressureIn,VisibilityMPH,Wind Direction,Wind SpeedMPH,Gust SpeedMPH,PrecipitationIn,Events,Conditions,WindDirDegrees,DateUTC
12:53 AM,69.1,66.0,90,29.71,10.0,Calm,Calm,-,N/A,,Mostly Cloudy,0,2013-06-30 04:53:00
1:01 AM,69.8,66.2,88,29.72,10.0,Calm,Calm,-,N/A,,Mostly Cloudy,0,2013-06-30 05:01:00
1:53 AM,69.1,66.9,93,29.71,8.0,Calm,Calm,-,N/A,,Mostly Cloudy,0,2013-06-30 05:53:00
2:04 AM,69.8,66.2,88,29.72,8.0,Calm,Calm,-,N/A,,Scattered Clouds,0,2013-06-30 06:04:00
2:53 AM,68.0,66.0,93,29.71,6.0,Calm,Calm,-,N/A,,Partly Cloudy,0,2013-06-30 06:53:00
3:30 AM,69.8,66.2,88,29.72,9.0,Calm,Calm,-,N/A,,Mostly Cloudy,0,2013-06-30 07:30:00
3:53 AM,69.1,66.0,90,29.71,8.0,Calm,Calm,-,N/A,,Overcast,0,2013-06-30 07:53:00
4:26 AM,68.0,66.2,94,29.72,7.0,Calm,Calm,-,N/A,,Scattered Clouds,0,2013-06-30 08:26:00
4:53 AM,68.0,64.9,90,29.72,8.0,Calm,Calm,-,N/A,,Clear,0,2013-06-30 08:53:00
5:53 AM,66.9,64.9,93,29.74,4.0,Calm,Calm,-,N/A,,Scattered Clouds,0,2013-06-30 09:53:00
6:03 AM,68.0,66.2,94,29.75,4.0,Calm,Calm,-,N/A,,Mostly Cloudy,0,2013-06-30 10:03:00
6:25 AM,69.8,66.2,88,29.76,5.0,Calm,Calm,-,N/A,,Overcast,0,2013-06-30 10:25:00
6:53 AM,70.0,66.9,90,29.76,5.0,Calm,Calm,-,N/A,,Overcast,0,2013-06-30 10:53:00
7:22 AM,71.6,68.0,88,29.78,4.0,Calm,Calm,-,N/A,,Overcast,0,2013-06-30 11:22:00
7:35 AM,71.6,69.8,94,29.78,2.5,Calm,Calm,-,N/A,,Overcast,0,2013-06-30 11:35:00
7:53 AM,72.0,70.0,93,29.78,2.5,Calm,Calm,-,N/A,,Overcast,0,2013-06-30 11:53:00
8:39 AM,75.2,71.6,89,29.80,3.0,Calm,Calm,-,N/A,,Mostly Cloudy,0,2013-06-30 12:39:00
8:53 AM,75.0,71.1,87,29.79,3.0,Calm,Calm,-,N/A,,Mostly Cloudy,0,2013-06-30 12:53:00
9:53 AM,78.1,71.1,79,29.79,7.0,South,4.6,-,N/A,,Mostly Cloudy,190,2013-06-30 13:53:00
10:00 AM,78.8,71.6,78,29.80,7.0,South,4.6,-,N/A,,Mostly Cloudy,190,2013-06-30 14:00:00
10:53 AM,81.0,71.1,72,29.79,8.0,Variable,4.6,-,N/A,,Mostly Cloudy,0,2013-06-30 14:53:00
11:53 AM,81.0,71.1,72,29.78,7.0,SSW,6.9,-,N/A,,Scattered Clouds,200,2013-06-30 15:53:00
12:26 PM,80.6,68.0,65,29.79,9.0,ESE,5.8,-,N/A,,Mostly Cloudy,110,2013-06-30 16:26:00
12:53 PM,82.0,71.1,69,29.78,8.0,Variable,5.8,-,N/A,,Mostly Cloudy,0,2013-06-30 16:53:00
1:14 PM,80.6,69.8,70,29.78,9.0,SSE,6.9,-,N/A,,Overcast,150,2013-06-30 17:14:00
1:33 PM,78.8,68.0,69,29.79,10.0,South,16.1,20.7,N/A,,Overcast,180,2013-06-30 17:33:00
1:53 PM,75.9,66.9,74,29.78,10.0,South,15.0,-,N/A,,Mostly Cloudy,170,2013-06-30 17:53:00
2:53 PM,80.1,72.0,76,29.79,7.0,SE,12.7,-,N/A,,Partly Cloudy,140,2013-06-30 18:53:00
3:53 PM,80.1,71.1,74,29.78,10.0,North,-9999.0,-,N/A,,Scattered Clouds,0,2013-06-30 19:53:00
4:53 PM,80.1,71.1,74,29.79,10.0,South,12.7,-,N/A,,Clear,170,2013-06-30 20:53:00
5:53 PM,80.1,70.0,71,29.78,10.0,SE,12.7,-,N/A,,Partly Cloudy,140,2013-06-30 21:53:00
6:53 PM,79.0,66.9,66,29.81,10.0,SSE,9.2,-,N/A,,Clear,160,2013-06-30 22:53:00
7:53 PM,77.0,68.0,74,29.82,10.0,SSE,8.1,-,N/A,,Clear,150,2013-06-30 23:53:00
8:20 PM,77.0,69.8,78,29.85,10.0,SE,9.2,-,N/A,,Mostly Cloudy,140,2013-07-01 00:20:00
8:53 PM,75.9,69.1,79,29.85,10.0,SSE,5.8,-,N/A,,Mostly Cloudy,150,2013-07-01 00:53:00
9:00 PM,75.2,69.8,83,29.86,10.0,SSE,6.9,-,N/A,,Partly Cloudy,150,2013-07-01 01:00:00
9:48 PM,73.4,71.6,94,29.87,9.0,SE,5.8,-,N/A,,Mostly Cloudy,130,2013-07-01 01:48:00
9:53 PM,75.0,70.0,84,29.86,9.0,SE,5.8,-,N/A,,Mostly Cloudy,130,2013-07-01 01:53:00
10:07 PM,73.4,69.8,88,29.87,8.0,SE,4.6,-,N/A,,Scattered Clouds,130,2013-07-01 02:07:00
10:53 PM,73.9,70.0,87,29.87,7.0,ENE,3.5,-,N/A,,Mostly Cloudy,70,2013-07-01 02:53:00
11:53 PM,73.0,70.0,90,29.87,6.0,East,4.6,-,N/A,,Scattered Clouds,90,2013-07-01 03:53:00